Location: Unspecified
(0.0000°N, 0.0000°E)
Time: 18:53:11
(UTC+00:00)

ISS - Visible Passes

Search period start: 02 August 2021 00:00
Search period end: 12 August 2021 00:00
Orbit: 419 x 421 km, 51.6° (Epoch: 02 August)

Date Brightness Start Highest point End Pass type
(mag) Time Alt. Az. Time Alt. Az. Time Alt. Az.
08 Aug -0.9 19:54:28 10° NNW 19:54:53 13° NNW 19:54:53 13° NNW visible
09 Aug -1.9 19:07:59 10° N 19:10:05 17° NE 19:10:05 17° NE visible
10 Aug -1.4 19:56:35 10° WNW 19:58:24 24° W 19:58:24 24° W visible
11 Aug -3.8 19:08:58 10° NW 19:12:19 79° SW 19:13:46 31° SSE visible
